Погода в Вышетравине

Россия / Рязанская область     54°25′49″N   39°45′03″E
темп.,
°C
ветер,
м/с
пор.,
м/с
влажн.,
%
обл.,
%
осадки,
мм/ч
давл.,
гПа
погр.,
м
7 мая, пт
пт700:00+9з51088100 1.1 1010584
03:00+8юз2390100 3.0 1010104
06:00+7юз2491100 1.1 1010187
09:00+9зсз4579100 1.5 1011546
12:00+12з46505 0.0 10132064
15:00+14з56425 0.0 10132493
18:00+13зюз24556 0.0 1014224
21:00+8ю33615 0.0 101537
8 мая, сб
сб800:00+7ююв4765100 0.0 1015106
03:00+7ююв51369100 0.0 1014272
06:00+7ююв61580100 0.0 1013425
09:00+10ююв81574100 0.0 1011980
12:00+10ююв91678100 1.2 10091127
15:00+10ююв81688100 4.1 10061024
18:00+11ююв81594100 2.9 1005768
21:00+11ю61295100 3.2 1004600
9 мая, вс
вс900:00+10юз4794100 0.1 1004316
03:00+8ююз51094100 0.1 1005418
06:00+6ююз5781100 0.0 1006762
09:00+6юз3488100 0.1 1008548
12:00+7зсз5685100 0.1 1010761
15:00+4ссз81396100 0.1 1014775
18:00+6ссз5129092 0.0 1017934
21:00+6ссз3792100 0.0 1020185
10 мая, пн
пн1000:00+4ссз4129491 0.0 1022317
03:00+3ссз512937 0.0 1024288
06:00+3с5148665 0.0 1026469
09:00+9с81264100 0.0 1026888
12:00+13ссв7104810 0.0 10271338
15:00+15ссв79465 0.0 10261513
18:00+13ссв610575 0.0 1027431
21:00+8ссв49715 0.0 1028145
11 мая, вт
вт1100:00+6ссв411810 0.0 1028194
03:00+5ссв512853 0.0 1029234
06:00+6св515870 0.0 1029412
09:00+12всв710630 0.0 1029610
12:00+16всв78530 0.0 1028907
15:00+18всв67540 0.0 10271044
18:00+17всв48680 0.0 1027404
21:00+12св49820 0.0 1028153